SCP
-0 -0 -0 -0 -0 -0 -0 -0 0 0 0 0 0 0 0 0 -0 -0 -0 -0 -0 -0 0 0 0 0 0 0 0 0 0 0 0 0 0 -0 -0 0 0 -0 -0 -0 0 -0 0 0 0
-0 -0 -0 -0 -0 -0 -0 -0 -0 0 0 0 0 0 0 0 -0 -0 -0 -0 -0 -0 0 0 0 0 0 0 0 -0 0 0 0 -0 -0 -0 -0 -0 0 0 0 -0 0 0 0 0 0
-0 -0 -0 -0 -0 -0 -0 -0 -0 -0 0 0 0 0 0 0 -0 -0 -0 0 -0 0 0 0 0 0 -0 0 0 0 0 0 0 0 0 -0 -0 0 0 -0 -0 -0 0 0 0 0 0
-0 -0 -0 -0 -0 -0 -0 -0 -0 -0 -0 0 0 0 0 -0 -0 0 0 0 0 0 0 0 0 -0 0 0 -0 0 0 0 0 0 0 -0 0 0 -0 -0 0 -0 -0 0 0 0 0
-0 -0 -0 -0 -0 -0 -0 -0 -0 -0 -0 0 0 0 0 -0 0 0 0 0 0 0 0 0 0 0 0 0 -0 0 0 0 0 0 0 -0 0 -0 -0 -0 -0 -0 -0 0 -0 0 0
-0 -0 -0 -0 -0 -0 -0 -0 -0 -0 -0 0 0 0 0 0 0 0 0 0 0 0 0 0 0 0 0 0 0 0 0 0 0 0 -0 -0 -0 -0 0 0 0 -0 0 -0 -0 0 0
-0 -0 -0 -0 -0 -0 -0 -0 -0 -0 -0 -0 0 0 0 0 0 0 0 0 0 0 0 0 0 0 0 0 0 0 0 0 0 0 -0 -0 0 -0 -0 0 -0 -0 0 -0 0 0 0
-0 -0 -0 -0 -0 -0 -0 -0 -0 -0 -0 -0 0 0 0 0 0 0 0 0 0 0 0 -0 -0 0 0 0 0 -0 -0 -0 0 -0 0 0 0 -0 0 -0 -0 0 0 0 -0 -0 0
-0 -0 -0 -0 -0 -0 -0 -0 -0 -0 -0 -0 0 0 0 0 0 0 0 -0 0 0 0 0 -0 -0 0 0 -0 0 -0 0 -0 -0 -0 0 -0 0 0 -0 0 0 0 -0 0 -0 0
-0 -0 -0 -0 -0 -0 -0 -0 -0 -0 -0 -0 0 0 0 0 0 0 0 0 0 0 0 0 -0 0 -0 -0 0 0 0 0 0 0 0 0 -0 0 -0 0 0 -0 0 0 0 -0 0
-0 -0 -0 -0 -0 -0 -0 -0 -0 -0 -0 -0 0 0 0 0 0 0 0 0 -0 0 0 -0 -0 -0 0 -0 0 0 0 0 0 -0 -0 0 0 0 0 -0 0 0 -0 -0 -0 -0 -0
-0 -0 -0 -0 -0 -0 -0 -0 -0 -0 -0 -0 0 0 0 0 0 0 0 0 0 0 0 -0 -0 -0 0 -0 -0 -0 0 0 0 0 -0 -0 0 0 0 -0 -0 -0 0 -0 0 -0 0
-0 -0 -0 -0 -0 -0 -0 -0 -0 -0 -0 -0 0 0 0 0 0 0 0 0 0 0 -0 0 -0 0 0 0 0 -0 -0 -0 -0 0 -0 -0 -0 -0 0 -0 0 -0 -0 0 0 0 -0
-0 -0 -0 -0 -0 -0 -0 -0 -0 -0 -0 -0 0 0 0 0 0 0 0 0 0 0 -0 0 0 0 0 -0 -0 0 0 0 -0 0 0 0 -0 0 0 -0 -0 0 -0 0 0 0 -0
-0 -0 -0 -0 -0 -0 -0 -0 -0 -0 -0 -0 0 0 0 0 0 0 0 -0 0 0 0 0 0 -0 0 0 0 0 -0 -0 -0 0 -0 -0 0 0 -0 0 -0 -0 0 -0 0 0 0
-0 -0 -0 -0 -0 -0 -0 -0 -0 -0 -0 -0 -0 -0 -0 0 0 0 -0 0 0 0 0 -0 0 0 0 0 -0 -0 0 -0 -0 -0 0 -0 0 -0 -0 0 0 0 0 0 0 0 -0
-0 -0 -0 -0 -0 -0 -0 -0 -0 -0 -0 0 0 0 -0 0 0 0 -0 0 0 0 0 -0 0 0 0 0 0 0 0 0 0 0 -0 0 -0 -0 -0 -0 -0 -0 0 0 0 0 0
-0 -0 -0 -0 -0 -0 -0 -0 -0 -0 -0 0 0 0 -0 0 0 0 0 -0 0 0 0 0 0 0 0 0 0 0 0 0 0 0 0 0 0 0 0 0 0 0 0 0 0 0 0
-0 -0 -0 -0 -0 -0 -0 -0 -0 0 0 0 0 0 0 0 0 0 0 0 0 0 -0 0 0 0 0 0 0 0 0 0 0 0 0 0 0 0 0 0 0 0 0 0 0 0 0
-0 -0 -0 -0 -0 -0 -0 -0 -0 -0 0 0 0 0 0 0 0 0 0 0 0 -0 0 0 0 0 0 0 0 0 0 0 0 0 0 0 0 0 0 0 0 0 0 0 0 0 0
-0 -0 -0 -0 -0 -0 -0 -0 -0 -0 0 0 0 0 0 0 0 0 0 0 0 0 0 0 0 0 0 0 0 0 0 0 0 0 0 0 0 0 0 0 0 0 0 0 0 0 0
-0 -0 -0 -0 -0 -0 -0 -0 -0 -0 0 0 0 0 0 0 0 0 0 0 0 0 0 0 0 0 0 0 0 0 0 0 0 0 0 0 0 0 0 0 0 0 0 0 0 0 0
-0 -0 -0 -0 -0 -0 -0 -0 -0 -0 0 0 0 0 0 0 0 0 0 0 0 0 0 0 0 0 0 0 0 0 0 0 0 0 0 0 0 0 0 0 0 0 0 0 0 0 0
-0 -0 -0 -0 -0 -0 -0 -0 -0 -0 0 0 0 0 0 0 0 0 0 0 0 0 0 0 0 0 0 0 0 0 0 0 0 0 0 0 0 0 0 0 0 0 0 0 0 0 0
-0 -0 -0 -0 -0 -0 -0 -0 -0 -0 -0 0 0 0 0 0 0 0 0 0 0 0 0 0 0 0 0 0 0 0 0 0 0 0 0 0 0 0 0 0 0 0 0 0 0 0 0
0 0 -0 -0 -0 -0 -0 -0 -0 -0 -0 0 0 0 0 0 0 0 0 0 0 0 0 0 0 0 0 0 0 0 0 0 0 0 0 0 0 0 0 0 0 0 0 0 0 0 0
0 0 0 -0 -0 -0 -0 -0 -0 -0 -0 0 0 0 0 0 0 0 0 0 0 0 0 0 0 0 0 0 0 0 0 0 0 0 0 0 0 0 0 0 0 0 0 0 0 0 0
0 0 0 0 -0 -0 -0 -0 -0 -0 -0 0 0 0 0 0 0 0 0 0 0 0 0 0 0 0 0 0 0 0 0 0 0 0 0 0 0 0 0 0 0 0 0 0 0 0 0
0 0 0 0 0 -0 -0 -0 -0 -0 -0 0 0 0 0 0 0 0 0 0 0 0 0 0 0 0 0 0 0 0 0 0 0 0 0 0 0 0 0 0 0 0 0 0 0 0 0
Wind_Speed_500mb
32 31 31 30 29 28 26 25 24 23 20 18 18 17 15 13 12 12 11 11 10 10 10 11 11 10 10 10 14 4 5 10 14 16 22 27 37 37 9 17 9 8 6 21 24 24 15
34 34 34 34 34 32 31 29 28 26 23 20 18 16 15 13 12 12 11 10 9 9 10 10 11 11 10 8 11 7 12 12 4 18 18 23 36 37 18 12 3 9 9 6 19 19 24
36 36 37 37 38 38 37 35 32 28 24 20 18 15 14 12 12 11 10 9 8 8 9 9 10 12 18 27 10 3 18 14 9 10 16 29 34 29 27 20 33 28 10 13 15 12 12
38 38 38 39 41 42 42 41 38 32 24 19 16 14 12 12 11 10 9 8 8 8 9 9 9 12 17 13 23 11 13 18 18 14 27 35 29 34 10 24 27 12 8 2 11 12 8
39 39 40 40 42 45 47 47 44 36 25 18 14 12 11 11 10 9 8 8 8 8 9 9 8 9 17 19 26 15 17 16 6 9 17 15 25 12 21 8 13 7 8 6 8 20 6
40 40 41 42 43 45 49 51 49 41 27 18 13 10 10 11 10 8 8 7 7 9 10 11 13 8 22 16 25 28 21 21 16 22 18 23 10 5 9 9 8 10 1 6 7 7 8
40 41 42 43 43 46 49 53 53 45 30 21 14 10 9 10 10 9 9 7 5 4 17 19 11 14 7 12 13 21 17 13 21 7 10 12 4 14 24 13 14 17 2 7 10 14 15
40 41 42 44 45 46 48 52 54 47 34 23 14 10 9 10 11 12 14 8 9 7 15 24 39 32 29 19 11 36 26 16 3 8 5 9 12 29 18 23 14 8 4 12 14 17 5
40 41 42 43 45 46 48 51 53 49 36 24 15 6 7 11 12 12 18 12 10 23 4 15 31 40 28 9 12 33 29 42 11 7 12 11 23 15 10 22 7 9 3 8 12 10 7
41 41 42 43 44 46 47 49 50 48 37 25 17 5 8 14 12 12 7 7 11 6 8 10 11 18 37 18 11 29 39 30 8 22 15 13 39 13 10 5 11 2 14 6 9 10 6
42 42 43 43 44 46 47 47 47 46 37 25 17 4 10 21 14 18 11 3 6 3 7 10 10 12 23 25 4 21 45 45 14 16 7 27 16 18 12 6 4 17 6 4 4 8 10
43 43 43 44 45 45 46 46 45 43 36 25 16 5 11 23 19 2 5 7 12 10 7 4 16 13 10 22 14 12 54 31 24 8 4 18 26 9 11 6 6 6 5 16 11 7 7
45 45 45 44 45 46 46 46 44 41 36 24 15 5 13 20 17 3 4 3 9 6 9 10 9 12 11 12 7 13 17 13 10 3 11 16 18 18 10 1 14 13 13 8 11 9 12
46 46 46 46 46 47 47 46 43 40 35 23 12 7 13 25 12 3 5 9 4 11 11 6 10 12 14 13 12 13 7 8 11 7 6 4 22 11 11 18 15 9 14 10 5 5 12
47 46 46 46 46 47 48 46 43 39 35 22 8 8 10 27 15 2 3 6 13 10 10 10 9 11 9 12 12 12 18 16 18 20 13 5 8 11 17 7 15 9 5 12 10 2 7
47 47 47 47 47 47 48 49 44 37 33 16 7 14 7 36 19 6 8 9 9 10 14 10 5 7 1 11 13 16 15 9 10 21 18 8 7 5 6 15 8 7 7 8 7 2 3
46 47 47 48 47 46 48 49 48 35 29 13 6 8 22 34 26 4 5 12 11 30 14 8 4 3 6 3 16 9 8 8 9 11 22 5 7 15 11 10 9 14 12 10 6 8 9
45 46 48 48 47 46 47 47 49 39 28 13 2 3 29 42 8 4 5 9 13 22 24 9 7 10 6 13 17 8 9 6 21 7 7 6 10 4 6 7 7 13 5 8 8 15 4
43 44 47 49 48 45 46 45 47 46 32 20 9 7 38 42 5 5 15 16 19 22 4 8 12 10 7 9 8 8 4 7 16 8 8 3 5 6 19 16 12 11 10 7 5 4 3
41 41 45 48 50 44 45 45 44 40 26 17 3 5 9 40 20 4 7 14 13 15 7 11 4 7 12 15 13 10 16 17 17 17 18 15 6 12 12 13 8 10 13 10 10 4 5
40 40 42 46 49 44 44 46 45 35 22 10 6 3 7 4 8 9 10 11 7 12 8 24 15 18 6 13 10 9 14 17 16 16 11 9 6 9 12 13 7 6 11 16 9 13 6
38 39 39 43 47 45 41 45 45 35 16 19 8 11 14 10 22 11 9 14 12 14 10 9 16 20 26 11 6 5 7 5 3 10 7 8 3 3 5 8 13 9 14 13 12 19 5
36 37 38 40 45 45 35 39 44 39 20 11 17 5 7 13 14 6 5 7 11 6 25 23 15 11 18 7 13 17 18 22 18 7 3 3 7 5 8 9 11 11 9 16 8 19 4
33 34 36 38 43 43 29 32 36 37 33 31 32 9 8 7 8 7 14 18 16 12 3 13 25 13 4 12 23 28 24 24 22 25 25 11 9 8 8 6 4 16 14 24 32 27 21
32 32 34 35 39 37 29 28 31 31 19 24 39 17 8 3 15 18 32 12 22 29 12 15 16 14 9 8 9 10 11 11 11 14 14 17 10 3 7 7 9 6 11 5 3 10 19
30 31 31 32 33 33 28 26 28 28 17 14 33 32 4 2 11 19 4 18 6 9 15 9 10 15 16 8 7 3 4 6 10 16 17 15 10 9 4 6 9 5 8 22 3 6 3
30 30 28 28 29 29 25 23 24 24 18 12 22 30 4 4 17 26 12 5 10 6 3 7 21 16 14 5 4 3 6 5 5 7 9 9 7 6 2 5 0 9 19 15 2 9 17
33 29 25 24 25 25 22 20 20 22 18 8 16 18 13 2 13 13 14 10 10 12 6 14 8 15 10 9 5 5 5 4 6 6 3 2 3 4 4 2 7 35 12 8 8 12 23
29 25 22 20 20 21 19 18 18 18 18 17 13 9 8 9 2 7 18 5 3 10 9 8 7 6 6 7 3 3 5 6 3 5 9 8 6 5 5 9 2 15 22 11 18 28 36
Wind_Direction_500mb
27 23 20 16 12 6 0 353 341 329 320 310 303 298 295 291 285 282 277 272 267 258 249 243 251 273 299 284 257 157 349 342 280 248 261 300 313 323 295 340 327 134 155 163 198 179 178
27 25 22 18 13 8 3 356 345 334 322 311 301 294 289 287 282 277 273 268 262 253 244 237 246 266 278 275 298 116 11 332 278 234 266 297 311 324 286 320 114 341 334 200 216 193 191
26 25 22 20 15 11 7 1 352 339 325 312 300 291 283 279 274 268 264 258 249 240 234 226 237 258 264 234 154 206 279 312 348 285 274 325 325 337 334 339 336 327 345 319 201 188 184
23 20 18 17 14 10 8 4 358 346 331 316 301 287 277 271 265 258 252 242 233 220 218 211 224 259 259 241 254 237 238 264 279 277 294 310 306 311 324 321 336 344 60 248 218 205 228
18 15 12 11 10 7 7 4 1 354 342 327 308 289 273 260 252 244 237 226 213 199 200 190 201 239 261 211 230 213 222 252 275 270 280 293 307 330 330 38 347 338 219 263 335 217 197
14 11 8 7 5 4 4 3 2 0 352 339 319 292 263 246 233 223 222 208 191 183 184 182 206 278 243 227 223 205 228 240 270 262 262 271 302 12 339 76 260 316 191 290 249 262 226
8 8 7 5 3 2 2 2 3 2 356 339 321 291 251 227 212 206 198 165 135 179 230 211 210 223 309 4 206 201 175 219 257 297 211 279 12 246 255 195 236 256 298 341 287 280 178
3 4 4 4 2 1 1 1 2 4 0 350 329 289 234 209 198 201 202 199 122 5 291 264 247 256 268 287 288 209 197 217 248 253 339 348 245 251 259 279 240 71 17 300 313 292 124
360 359 0 1 1 0 1 1 2 4 5 2 355 319 209 189 189 200 219 183 328 340 287 273 237 240 247 266 222 198 198 207 193 262 259 207 251 288 234 275 263 347 243 258 250 316 307
357 356 356 357 357 358 359 360 0 4 5 2 359 343 183 172 175 180 157 131 286 283 55 267 202 242 234 239 275 219 208 191 200 225 250 234 262 237 279 225 131 195 268 293 316 35 293
356 355 355 354 354 354 356 357 358 1 3 359 353 344 180 165 152 146 33 121 230 307 61 153 185 166 188 189 260 194 199 202 217 240 65 273 293 310 312 250 57 243 268 277 334 10 9
356 355 354 353 352 351 352 353 356 356 360 356 349 325 193 187 174 68 128 72 160 40 275 213 162 161 118 212 252 339 177 199 229 246 272 244 281 212 226 265 159 242 334 21 33 73 356
355 355 354 353 351 350 349 350 352 352 353 350 347 307 210 190 157 163 223 336 55 142 299 193 170 152 153 199 249 166 176 206 173 87 278 331 282 274 187 239 342 49 55 348 352 7 227
357 355 355 354 352 350 348 347 350 350 348 343 339 309 224 180 152 170 342 60 132 246 231 171 147 146 177 169 238 218 156 224 260 129 73 216 315 342 165 182 195 207 147 155 245 273 274
358 357 356 355 353 351 348 346 347 350 348 346 323 326 242 170 162 109 22 89 212 224 299 28 53 143 243 213 186 148 205 211 209 164 172 171 280 322 57 340 127 273 305 186 137 108 45
357 359 359 358 355 353 349 347 345 352 352 4 336 315 255 178 175 190 72 238 244 240 311 66 98 179 158 279 169 162 183 257 226 192 151 232 347 2 303 23 29 91 237 358 8 3 302
358 359 0 360 358 355 352 349 345 350 354 4 19 332 157 165 171 188 165 239 283 302 288 58 329 293 186 305 200 177 174 315 6 77 97 107 98 299 43 45 336 352 19 4 128 134 173
357 358 360 1 359 357 354 352 347 345 360 349 354 40 170 162 133 201 196 223 321 308 338 3 24 51 39 43 9 89 55 55 46 56 68 325 126 46 261 272 225 131 103 111 97 301 243
356 358 360 1 360 358 355 355 352 343 357 4 345 297 177 177 139 272 281 282 276 273 278 46 15 28 7 56 72 20 95 114 103 91 148 289 39 30 344 349 5 48 357 105 153 53 356
352 356 358 0 1 359 357 357 356 344 348 345 2 19 191 209 233 179 291 276 292 218 148 108 116 39 40 30 40 25 11 10 45 89 79 74 86 144 187 226 217 319 334 355 113 98 227
349 353 356 360 2 1 359 359 3 360 15 46 36 18 19 291 308 281 196 275 291 4 57 27 47 45 59 43 32 51 7 0 23 25 28 88 154 179 215 236 330 328 348 336 349 248 179
345 349 353 358 0 1 1 2 8 15 32 45 41 18 346 287 301 343 8 355 54 16 46 24 90 74 68 89 116 306 36 65 257 346 36 7 280 51 333 333 355 339 321 336 327 338 15
343 346 350 356 359 360 2 8 9 22 38 39 23 24 314 332 331 42 313 17 34 69 40 53 103 91 60 28 347 317 289 270 238 207 256 179 128 68 266 303 3 343 284 292 72 28 257
339 343 349 355 359 1 7 12 15 16 29 39 27 15 3 316 23 357 32 54 34 39 107 47 68 88 26 340 329 327 310 298 282 268 185 180 136 139 217 48 329 239 20 87 83 35 37
337 341 346 353 360 4 9 11 16 18 27 34 34 32 24 358 346 351 6 10 28 19 9 100 81 88 13 28 38 9 339 350 290 247 245 176 123 118 151 183 277 28 17 348 343 55 23
332 337 341 350 357 4 7 10 13 19 34 36 32 31 32 51 342 341 16 26 53 354 360 77 75 58 45 76 67 126 259 261 320 330 35 66 81 124 119 165 231 229 288 336 267 146 54
318 328 335 343 351 1 5 8 12 18 28 39 31 25 82 5 22 37 38 6 12 28 90 4 341 1 24 69 65 193 258 277 347 35 336 355 3 129 124 245 66 351 337 355 258 249 337
306 310 323 334 344 353 1 5 8 15 20 15 15 15 34 22 39 35 33 37 49 55 98 321 44 5 31 55 85 303 43 314 47 293 84 154 94 294 27 247 237 348 26 88 273 340 344
303 294 308 322 336 346 352 358 356 2 11 20 22 1 254 216 172 49 48 51 105 58 7 33 117 37 55 82 34 74 350 16 135 301 330 22 166 192 125 197 245 62 100 71 10 338 325
Wind_Speed_850mb
32 31 31 30 29 28 26 25 24 23 20 18 18 17 15 13 12 12 11 11 10 10 10 11 11 10 10 10 14 4 5 10 14 16 22 27 37 37 9 17 9 8 6 21 24 24 15
34 34 34 34 34 32 31 29 28 26 23 20 18 16 15 13 12 12 11 10 9 9 10 10 11 11 10 8 11 7 12 12 4 18 18 23 36 37 18 12 3 9 9 6 19 19 24
36 36 37 37 38 38 37 35 32 28 24 20 18 15 14 12 12 11 10 9 8 8 9 9 10 12 18 27 10 3 18 14 9 10 16 29 34 29 27 20 33 28 10 13 15 12 12
38 38 38 39 41 42 42 41 38 32 24 19 16 14 12 12 11 10 9 8 8 8 9 9 9 12 17 13 23 11 13 18 18 14 27 35 29 34 10 24 27 12 8 2 11 12 8
39 39 40 40 42 45 47 47 44 36 25 18 14 12 11 11 10 9 8 8 8 8 9 9 8 9 17 19 26 15 17 16 6 9 17 15 25 12 21 8 13 7 8 6 8 20 6
40 40 41 42 43 45 49 51 49 41 27 18 13 10 10 11 10 8 8 7 7 9 10 11 13 8 22 16 25 28 21 21 16 22 18 23 10 5 9 9 8 10 1 6 7 7 8
40 41 42 43 43 46 49 53 53 45 30 21 14 10 9 10 10 9 9 7 5 4 17 19 11 14 7 12 13 21 17 13 21 7 10 12 4 14 24 13 14 17 2 7 10 14 15
40 41 42 44 45 46 48 52 54 47 34 23 14 10 9 10 11 12 14 8 9 7 15 24 39 32 29 19 11 36 26 16 3 8 5 9 12 29 18 23 14 8 4 12 14 17 5
40 41 42 43 45 46 48 51 53 49 36 24 15 6 7 11 12 12 18 12 10 23 4 15 31 40 28 9 12 33 29 42 11 7 12 11 23 15 10 22 7 9 3 8 12 10 7
41 41 42 43 44 46 47 49 50 48 37 25 17 5 8 14 12 12 7 7 11 6 8 10 11 18 37 18 11 29 39 30 8 22 15 13 39 13 10 5 11 2 14 6 9 10 6
42 42 43 43 44 46 47 47 47 46 37 25 17 4 10 21 14 18 11 3 6 3 7 10 10 12 23 25 4 21 45 45 14 16 7 27 16 18 12 6 4 17 6 4 4 8 10
43 43 43 44 45 45 46 46 45 43 36 25 16 5 11 23 19 2 5 7 12 10 7 4 16 13 10 22 14 12 54 31 24 8 4 18 26 9 11 6 6 6 5 16 11 7 7
45 45 45 44 45 46 46 46 44 41 36 24 15 5 13 20 17 3 4 3 9 6 9 10 9 12 11 12 7 13 17 13 10 3 11 16 18 18 10 1 14 13 13 8 11 9 12
46 46 46 46 46 47 47 46 43 40 35 23 12 7 13 25 12 3 5 9 4 11 11 6 10 12 14 13 12 13 7 8 11 7 6 4 22 11 11 18 15 9 14 10 5 5 12
47 46 46 46 46 47 48 46 43 39 35 22 8 8 10 27 15 2 3 6 13 10 10 10 9 11 9 12 12 12 18 16 18 20 13 5 8 11 17 7 15 9 5 12 10 2 7
47 47 47 47 47 47 48 49 44 37 33 16 7 14 7 36 19 6 8 9 9 10 14 10 5 7 1 11 13 16 15 9 10 21 18 8 7 5 6 15 8 7 7 8 7 2 3
46 47 47 48 47 46 48 49 48 35 29 13 6 8 22 34 26 4 5 12 11 30 14 8 4 3 6 3 16 9 8 8 9 11 22 5 7 15 11 10 9 14 12 10 6 8 9
45 46 48 48 47 46 47 47 49 39 28 13 2 3 29 42 8 4 5 9 13 22 24 9 7 10 6 13 17 8 9 6 21 7 7 6 10 4 6 7 7 13 5 8 8 15 4
43 44 47 49 48 45 46 45 47 46 32 20 9 7 38 42 5 5 15 16 19 22 4 8 12 10 7 9 8 8 4 7 16 8 8 3 5 6 19 16 12 11 10 7 5 4 3
41 41 45 48 50 44 45 45 44 40 26 17 3 5 9 40 20 4 7 14 13 15 7 11 4 7 12 15 13 10 16 17 17 17 18 15 6 12 12 13 8 10 13 10 10 4 5
40 40 42 46 49 44 44 46 45 35 22 10 6 3 7 4 8 9 10 11 7 12 8 24 15 18 6 13 10 9 14 17 16 16 11 9 6 9 12 13 7 6 11 16 9 13 6
38 39 39 43 47 45 41 45 45 35 16 19 8 11 14 10 22 11 9 14 12 14 10 9 16 20 26 11 6 5 7 5 3 10 7 8 3 3 5 8 13 9 14 13 12 19 5
36 37 38 40 45 45 35 39 44 39 20 11 17 5 7 13 14 6 5 7 11 6 25 23 15 11 18 7 13 17 18 22 18 7 3 3 7 5 8 9 11 11 9 16 8 19 4
33 34 36 38 43 43 29 32 36 37 33 31 32 9 8 7 8 7 14 18 16 12 3 13 25 13 4 12 23 28 24 24 22 25 25 11 9 8 8 6 4 16 14 24 32 27 21
32 32 34 35 39 37 29 28 31 31 19 24 39 17 8 3 15 18 32 12 22 29 12 15 16 14 9 8 9 10 11 11 11 14 14 17 10 3 7 7 9 6 11 5 3 10 19
30 31 31 32 33 33 28 26 28 28 17 14 33 32 4 2 11 19 4 18 6 9 15 9 10 15 16 8 7 3 4 6 10 16 17 15 10 9 4 6 9 5 8 22 3 6 3
30 30 28 28 29 29 25 23 24 24 18 12 22 30 4 4 17 26 12 5 10 6 3 7 21 16 14 5 4 3 6 5 5 7 9 9 7 6 2 5 0 9 19 15 2 9 17
33 29 25 24 25 25 22 20 20 22 18 8 16 18 13 2 13 13 14 10 10 12 6 14 8 15 10 9 5 5 5 4 6 6 3 2 3 4 4 2 7 35 12 8 8 12 23
29 25 22 20 20 21 19 18 18 18 18 17 13 9 8 9 2 7 18 5 3 10 9 8 7 6 6 7 3 3 5 6 3 5 9 8 6 5 5 9 2 15 22 11 18 28 36
Wind_Direction_850mb
27 23 20 16 12 6 0 353 341 329 320 310 303 298 295 291 285 282 277 272 267 258 249 243 251 273 299 284 257 157 349 342 280 248 261 300 313 323 295 340 327 134 155 163 198 179 178
27 25 22 18 13 8 3 356 345 334 322 311 301 294 289 287 282 277 273 268 262 253 244 237 246 266 278 275 298 116 11 332 278 234 266 297 311 324 286 320 114 341 334 200 216 193 191
26 25 22 20 15 11 7 1 352 339 325 312 300 291 283 279 274 268 264 258 249 240 234 226 237 258 264 234 154 206 279 312 348 285 274 325 325 337 334 339 336 327 345 319 201 188 184
23 20 18 17 14 10 8 4 358 346 331 316 301 287 277 271 265 258 252 242 233 220 218 211 224 259 259 241 254 237 238 264 279 277 294 310 306 311 324 321 336 344 60 248 218 205 228
18 15 12 11 10 7 7 4 1 354 342 327 308 289 273 260 252 244 237 226 213 199 200 190 201 239 261 211 230 213 222 252 275 270 280 293 307 330 330 38 347 338 219 263 335 217 197
14 11 8 7 5 4 4 3 2 0 352 339 319 292 263 246 233 223 222 208 191 183 184 182 206 278 243 227 223 205 228 240 270 262 262 271 302 12 339 76 260 316 191 290 249 262 226
8 8 7 5 3 2 2 2 3 2 356 339 321 291 251 227 212 206 198 165 135 179 230 211 210 223 309 4 206 201 175 219 257 297 211 279 12 246 255 195 236 256 298 341 287 280 178
3 4 4 4 2 1 1 1 2 4 0 350 329 289 234 209 198 201 202 199 122 5 291 264 247 256 268 287 288 209 197 217 248 253 339 348 245 251 259 279 240 71 17 300 313 292 124
360 359 0 1 1 0 1 1 2 4 5 2 355 319 209 189 189 200 219 183 328 340 287 273 237 240 247 266 222 198 198 207 193 262 259 207 251 288 234 275 263 347 243 258 250 316 307
357 356 356 357 357 358 359 360 0 4 5 2 359 343 183 172 175 180 157 131 286 283 55 267 202 242 234 239 275 219 208 191 200 225 250 234 262 237 279 225 131 195 268 293 316 35 293
356 355 355 354 354 354 356 357 358 1 3 359 353 344 180 165 152 146 33 121 230 307 61 153 185 166 188 189 260 194 199 202 217 240 65 273 293 310 312 250 57 243 268 277 334 10 9
356 355 354 353 352 351 352 353 356 356 360 356 349 325 193 187 174 68 128 72 160 40 275 213 162 161 118 212 252 339 177 199 229 246 272 244 281 212 226 265 159 242 334 21 33 73 356
355 355 354 353 351 350 349 350 352 352 353 350 347 307 210 190 157 163 223 336 55 142 299 193 170 152 153 199 249 166 176 206 173 87 278 331 282 274 187 239 342 49 55 348 352 7 227
357 355 355 354 352 350 348 347 350 350 348 343 339 309 224 180 152 170 342 60 132 246 231 171 147 146 177 169 238 218 156 224 260 129 73 216 315 342 165 182 195 207 147 155 245 273 274
358 357 356 355 353 351 348 346 347 350 348 346 323 326 242 170 162 109 22 89 212 224 299 28 53 143 243 213 186 148 205 211 209 164 172 171 280 322 57 340 127 273 305 186 137 108 45
357 359 359 358 355 353 349 347 345 352 352 4 336 315 255 178 175 190 72 238 244 240 311 66 98 179 158 279 169 162 183 257 226 192 151 232 347 2 303 23 29 91 237 358 8 3 302
358 359 0 360 358 355 352 349 345 350 354 4 19 332 157 165 171 188 165 239 283 302 288 58 329 293 186 305 200 177 174 315 6 77 97 107 98 299 43 45 336 352 19 4 128 134 173
357 358 360 1 359 357 354 352 347 345 360 349 354 40 170 162 133 201 196 223 321 308 338 3 24 51 39 43 9 89 55 55 46 56 68 325 126 46 261 272 225 131 103 111 97 301 243
356 358 360 1 360 358 355 355 352 343 357 4 345 297 177 177 139 272 281 282 276 273 278 46 15 28 7 56 72 20 95 114 103 91 148 289 39 30 344 349 5 48 357 105 153 53 356
352 356 358 0 1 359 357 357 356 344 348 345 2 19 191 209 233 179 291 276 292 218 148 108 116 39 40 30 40 25 11 10 45 89 79 74 86 144 187 226 217 319 334 355 113 98 227
349 353 356 360 2 1 359 359 3 360 15 46 36 18 19 291 308 281 196 275 291 4 57 27 47 45 59 43 32 51 7 0 23 25 28 88 154 179 215 236 330 328 348 336 349 248 179
345 349 353 358 0 1 1 2 8 15 32 45 41 18 346 287 301 343 8 355 54 16 46 24 90 74 68 89 116 306 36 65 257 346 36 7 280 51 333 333 355 339 321 336 327 338 15
343 346 350 356 359 360 2 8 9 22 38 39 23 24 314 332 331 42 313 17 34 69 40 53 103 91 60 28 347 317 289 270 238 207 256 179 128 68 266 303 3 343 284 292 72 28 257
339 343 349 355 359 1 7 12 15 16 29 39 27 15 3 316 23 357 32 54 34 39 107 47 68 88 26 340 329 327 310 298 282 268 185 180 136 139 217 48 329 239 20 87 83 35 37
337 341 346 353 360 4 9 11 16 18 27 34 34 32 24 358 346 351 6 10 28 19 9 100 81 88 13 28 38 9 339 350 290 247 245 176 123 118 151 183 277 28 17 348 343 55 23
332 337 341 350 357 4 7 10 13 19 34 36 32 31 32 51 342 341 16 26 53 354 360 77 75 58 45 76 67 126 259 261 320 330 35 66 81 124 119 165 231 229 288 336 267 146 54
318 328 335 343 351 1 5 8 12 18 28 39 31 25 82 5 22 37 38 6 12 28 90 4 341 1 24 69 65 193 258 277 347 35 336 355 3 129 124 245 66 351 337 355 258 249 337
306 310 323 334 344 353 1 5 8 15 20 15 15 15 34 22 39 35 33 37 49 55 98 321 44 5 31 55 85 303 43 314 47 293 84 154 94 294 27 247 237 348 26 88 273 340 344
303 294 308 322 336 346 352 358 356 2 11 20 22 1 254 216 172 49 48 51 105 58 7 33 117 37 55 82 34 74 350 16 135 301 330 22 166 192 125 197 245 62 100 71 10 338 325